Powrót do katalogu

FREGAT RB/CLUSTER 2

AktywnyNaukaHEO
NORAD 26106·PAYLOAD·🇷🇺 Russia

Wystrzelony Mar 20, 2000 z Baikonur Cosmodrome

Loading…

Następne Przeloty (najbliższe 24 godziny)

TLE

ŚwieżeSource: Space-Track

Epoka: Sep 13, 2026, 19:40 UTC

1 26106U 00015A   26256.81965102  .00000018  00000-0  46237-4 0  9999
2 26106  65.1037  92.5455 5467407 258.8295  38.0407  4.61259870442296

Śledź FREGAT RB/CLUSTER 2 w czasie rzeczywistym z AllMySat

Download on the App Store